Wind_Speed
8 8 7 7 7 7 6 6 6 5 6 6 6 7 7 7 8 8 8 8 7 7 7 7 7 8 8 8 9 9 9 9 10 10 11 11 10 11 11 11 11 11 11
7 7 7 7 7 7 7 6 6 6 7 6 6 6 7 8 7 7 8 8 8 7 7 7 8 8 8 8 8 8 9 10 11 11 11 11 11 11 11 12 11 11 11
7 7 7 7 7 7 7 7 7 7 7 7 7 8 8 8 8 8 8 8 9 8 8 8 8 9 9 9 9 9 10 10 10 11 11 12 11 11 11 12 12 12 12
7 7 7 7 6 6 6 7 7 8 8 8 9 9 9 9 8 8 9 9 9 9 9 9 9 9 9 9 9 9 9 10 10 11 12 12 12 12 13 13 13 13 13
8 7 7 7 7 7 7 8 8 8 8 8 9 9 9 9 9 9 9 9 9 9 9 10 10 10 10 10 10 10 9 9 10 11 12 12 13 13 14 14 14 14 14
8 7 7 8 7 7 8 8 8 8 8 8 8 9 9 9 9 9 9 9 10 10 10 10 11 11 10 10 9 9 9 9 9 10 11 12 13 14 15 15 15 15 15
8 7 7 7 8 7 8 8 9 9 9 9 9 9 9 9 9 9 10 10 10 11 11 11 11 10 10 10 10 9 9 9 9 9 10 11 12 13 14 15 14 14 15
8 8 8 8 8 8 8 9 9 10 10 9 9 9 10 10 10 9 10 10 10 11 11 11 11 11 11 11 10 10 9 9 9 9 9 9 10 11 12 14 14 13 13
9 9 9 9 9 9 10 10 10 10 10 10 10 10 10 10 10 10 10 10 11 11 11 11 11 11 11 11 11 11 10 10 10 9 9 9 9 10 11 12 13 13 13
10 10 10 10 10 10 10 10 11 11 11 11 11 11 11 10 10 10 11 11 11 11 11 11 12 12 12 11 12 12 11 11 10 10 9 10 10 10 9 11 13 13 13
10 10 10 11 11 11 10 11 11 11 11 10 11 10 10 10 10 10 10 11 11 12 12 12 12 12 12 12 12 12 12 11 11 10 10 11 11 11 10 11 11 12 12
9 10 10 11 11 11 11 12 11 10 10 10 10 10 10 11 11 11 10 10 10 11 11 12 12 12 12 12 12 12 12 11 11 11 11 11 11 11 11 11 11 12 12
10 10 10 10 11 11 11 11 10 10 10 10 11 10 10 10 11 11 10 10 10 11 11 12 12 12 13 12 12 12 12 12 11 12 11 11 11 12 12 12 12 12 12
11 11 11 11 11 11 11 11 10 10 10 10 11 11 11 11 10 10 10 10 10 11 12 11 11 12 13 13 13 13 13 13 13 13 12 12 12 12 12 12 12 13 13
12 12 12 11 11 11 12 12 11 12 12 12 12 12 12 11 11 11 11 11 11 11 11 11 11 11 12 12 13 13 14 14 14 14 14 13 12 12 13 13 13 14 14
12 12 12 12 12 12 13 13 13 13 13 13 13 13 13 12 12 12 12 12 12 12 11 12 12 12 13 13 13 14 14 14 14 15 14 14 14 14 14 14 14 14 15
14 13 13 13 14 14 14 14 14 14 14 15 15 15 15 14 14 13 13 13 13 13 13 13 12 13 13 14 14 15 15 15 15 15 15 16 15 15 15 16 15 15 16
16 16 15 15 15 15 15 15 15 16 16 15 15 16 16 16 15 15 15 15 15 14 14 14 14 14 14 15 15 15 15 16 16 17 17 17 16 16 16 17 17 17 17
17 18 17 17 17 16 16 16 16 17 17 17 16 16 16 16 16 15 15 15 15 15 15 15 15 16 16 17 17 17 17 17 18 18 18 18 18 18 18 18 18 18 19
18 19 18 18 18 18 18 18 18 18 18 18 18 17 17 16 16 16 16 17 17 17 17 17 17 17 18 18 18 19 19 19 19 20 20 19 19 19 19 20 20 20 20
20 20 20 20 19 20 20 19 19 19 19 19 19 19 18 18 18 18 18 18 18 18 19 19 19 18 19 20 20 21 21 21 21 21 21 21 21 22 21 21 21 21 21
22 22 22 22 21 21 21 21 21 21 21 20 20 20 20 20 20 20 19 20 20 19 19 20 20 20 21 21 21 21 22 22 22 22 22 23 23 23 23 23 22 22 23
24 24 24 23 23 23 23 23 23 22 23 23 23 23 22 22 22 21 21 21 21 21 21 21 21 22 22 22 22 23 23 23 22 22 22 22 23 23 23 23 23 23 23
26 26 26 25 25 25 25 25 25 25 24 24 24 24 23 24 23 23 23 23 23 23 23 22 22 23 23 23 24 24 24 24 24 24 24 24 24 24 24 24 24 24 24
27 28 28 28 28 28 28 27 27 27 26 26 26 26 26 25 26 26 25 25 25 25 24 24 24 24 24 24 24 24 25 25 25 25 25 25 25 25 25 25 24 25 25
29 29 29 29 29 29 29 29 29 28 28 28 28 28 28 28 27 27 26 26 26 26 26 25 26 26 26 26 25 25 25 25 25 25 26 26 26 26 25 25 25 26 27
Wind_Direction
287 287 291 288 286 288 287 287 287 286 283 278 279 281 281 278 271 268 265 265 271 275 273 272 272 274 273 274 271 270 265 262 259 256 253 253 251 251 250 254 256 257 251
280 282 284 284 284 284 282 279 280 282 284 282 282 286 285 281 274 267 267 267 271 274 275 274 274 277 278 278 275 273 270 266 261 256 254 254 252 251 251 252 255 257 255
277 277 278 278 279 279 279 278 280 280 282 282 287 286 287 284 276 272 272 270 270 272 271 273 275 276 277 279 281 278 275 271 265 259 255 255 255 253 251 252 254 257 255
284 278 275 278 279 278 279 283 283 284 283 283 284 283 286 286 278 275 274 273 271 272 270 273 276 277 278 280 280 280 275 272 265 259 257 256 256 256 254 253 254 257 253
282 277 275 275 276 276 279 285 289 288 285 283 283 281 282 282 278 277 274 274 272 271 270 273 275 277 278 280 278 276 278 275 267 261 259 258 257 257 255 253 254 256 253
279 275 272 273 274 277 279 280 285 285 285 283 282 279 279 279 278 277 276 274 271 270 270 271 273 275 275 276 275 278 279 275 271 266 263 262 259 257 255 255 253 254 252
272 272 273 274 280 283 282 282 284 287 286 281 279 279 278 277 277 276 277 274 272 271 272 272 272 272 274 274 274 275 278 273 271 269 270 268 266 262 257 255 253 252 249
265 266 270 273 279 281 282 285 288 290 287 284 283 282 280 277 276 274 276 276 276 273 273 274 272 272 271 271 273 273 272 269 271 271 272 273 274 272 260 254 251 250 251
263 263 268 273 278 282 283 285 287 289 289 287 286 286 285 283 277 276 277 278 280 275 273 275 272 272 271 268 270 271 271 269 268 270 273 280 282 278 266 257 251 252 254
265 267 269 273 279 281 282 284 286 288 289 287 284 284 287 288 285 283 282 280 279 276 274 274 275 273 270 268 267 267 268 271 270 272 277 279 282 283 275 262 253 255 258
266 272 274 274 274 276 278 283 284 284 286 285 284 283 284 288 288 289 288 285 280 276 275 276 276 273 271 269 267 267 268 272 271 271 272 277 280 282 278 272 266 264 262
273 274 278 276 274 276 279 281 281 283 283 285 286 285 284 285 287 289 289 286 282 280 280 279 277 274 273 268 266 266 266 270 272 270 270 272 276 277 277 274 271 268 267
273 274 276 276 277 276 277 278 282 282 282 282 283 284 284 286 287 287 287 284 281 282 283 279 277 275 273 269 266 265 265 270 272 271 271 270 272 273 274 274 272 268 266
273 272 273 275 278 278 277 280 282 283 285 284 281 279 280 283 286 287 287 285 282 283 285 283 280 277 274 270 267 265 267 269 271 271 271 271 272 271 270 270 269 267 266
273 271 272 273 273 276 277 281 281 281 284 285 284 282 282 285 286 287 288 288 288 289 289 286 284 281 276 273 269 267 267 266 267 270 269 270 270 270 269 269 268 267 266
274 271 271 274 275 276 276 276 277 278 280 283 283 280 280 281 282 282 284 286 288 288 289 287 285 283 280 278 273 271 269 267 267 267 268 267 268 270 270 270 270 269 267
274 273 274 275 274 275 277 278 278 276 276 279 281 279 277 277 279 280 281 284 285 285 284 283 281 281 279 279 277 275 273 271 270 268 268 268 269 270 270 271 271 271 271
271 271 270 274 276 276 278 278 278 277 275 276 278 277 276 275 277 278 280 282 282 282 282 281 278 279 278 277 277 275 273 272 271 269 267 268 270 271 271 271 271 271 272
269 270 271 272 275 275 276 276 277 277 276 276 276 276 277 276 276 278 280 281 282 282 282 281 279 278 277 276 276 275 276 274 273 271 270 269 269 270 270 271 272 273 272
271 271 271 271 272 272 273 275 277 279 277 278 276 277 277 276 277 279 280 281 281 282 282 282 282 280 278 277 277 277 276 275 274 273 271 270 269 270 270 271 273 273 273
272 271 270 270 271 272 273 274 277 278 277 277 275 276 276 275 277 279 280 281 281 281 282 282 281 281 281 278 278 277 276 275 273 272 271 270 270 270 270 272 273 273 273
271 271 270 270 271 271 272 273 274 276 275 274 274 275 275 276 277 278 279 281 280 280 280 280 279 279 280 280 279 278 277 276 273 272 271 271 272 271 271 272 273 273 274
270 269 270 270 270 269 270 270 271 274 273 272 272 272 273 273 275 276 278 280 280 278 278 280 279 278 280 279 280 279 277 276 275 273 272 273 272 272 272 272 272 273 275
271 270 269 269 269 269 269 269 270 273 272 272 273 271 272 272 274 274 276 278 279 279 277 278 278 278 279 280 280 279 277 276 274 274 274 273 272 271 272 272 273 274 275
271 270 268 268 269 269 270 270 271 271 272 271 270 271 271 272 272 273 274 276 277 278 276 275 276 276 277 278 278 278 277 276 274 274 273 273 273 272 272 272 273 274 276
270 269 269 270 269 269 269 269 269 269 270 270 269 270 270 270 270 272 273 275 275 276 275 273 274 275 275 276 276 277 276 276 275 273 272 273 272 272 272 273 273 274 275
Height
5860 5860 5860 5859 5859 5859 5859 5858 5858 5858 5858 5857 5857 5857 5856 5856 5855 5855 5855 5854 5854 5854 5854 5853 5853 5853 5853 5852 5852 5851 5851 5851 5851 5850 5850 5850 5851 5851 5851 5851 5851 5851 5852
5859 5858 5858 5858 5858 5857 5857 5857 5857 5856 5856 5856 5855 5855 5854 5854 5853 5853 5853 5853 5852 5852 5852 5851 5851 5851 5850 5850 5850 5849 5849 5848 5848 5848 5848 5848 5848 5848 5848 5848 5849 5849 5849
5857 5857 5857 5856 5856 5856 5855 5855 5855 5855 5854 5854 5853 5853 5852 5852 5851 5851 5851 5850 5850 5850 5850 5849 5849 5849 5848 5848 5847 5847 5846 5846 5845 5845 5846 5846 5846 5846 5846 5846 5846 5846 5846
5855 5855 5855 5854 5854 5854 5853 5853 5853 5853 5852 5851 5851 5851 5850 5850 5850 5849 5848 5848 5848 5848 5847 5847 5847 5846 5846 5845 5845 5844 5844 5843 5843 5843 5843 5843 5843 5843 5843 5843 5843 5844 5844
5853 5853 5852 5852 5852 5852 5852 5851 5851 5850 5850 5849 5849 5849 5848 5848 5847 5847 5846 5846 5845 5845 5845 5845 5844 5844 5843 5843 5842 5842 5841 5840 5840 5840 5840 5840 5840 5840 5840 5840 5840 5840 5840
5850 5850 5850 5850 5850 5850 5849 5849 5849 5848 5848 5847 5847 5846 5846 5845 5845 5844 5843 5843 5842 5842 5842 5842 5842 5841 5841 5840 5840 5839 5839 5838 5837 5837 5837 5837 5836 5836 5836 5836 5836 5836 5837
5848 5848 5848 5848 5848 5848 5847 5847 5846 5846 5845 5845 5845 5844 5843 5843 5842 5842 5841 5840 5840 5839 5839 5839 5839 5838 5838 5838 5837 5837 5836 5835 5835 5834 5834 5834 5833 5832 5831 5831 5832 5832 5833
5845 5846 5846 5846 5845 5845 5845 5844 5844 5843 5842 5842 5841 5841 5841 5841 5839 5839 5838 5837 5837 5836 5836 5835 5835 5835 5835 5835 5835 5834 5834 5833 5832 5832 5831 5830 5830 5828 5827 5826 5827 5828 5829
5843 5843 5843 5843 5843 5842 5842 5841 5841 5840 5839 5839 5838 5838 5837 5837 5836 5836 5835 5834 5834 5833 5833 5832 5832 5832 5832 5832 5832 5831 5831 5830 5830 5829 5828 5827 5826 5825 5822 5821 5823 5825 5826
5840 5840 5840 5840 5840 5839 5839 5838 5838 5837 5836 5835 5835 5834 5834 5833 5833 5832 5832 5831 5830 5830 5830 5829 5829 5828 5828 5828 5828 5828 5828 5827 5827 5826 5826 5825 5824 5823 5820 5819 5820 5821 5822
5837 5837 5837 5837 5837 5836 5836 5835 5834 5834 5833 5832 5832 5831 5831 5830 5830 5829 5828 5828 5827 5827 5826 5826 5825 5825 5824 5824 5824 5824 5824 5824 5824 5823 5823 5822 5822 5821 5819 5818 5818 5818 5819
5834 5834 5834 5834 5833 5833 5833 5832 5831 5831 5830 5829 5829 5828 5828 5827 5827 5826 5825 5825 5824 5823 5823 5822 5822 5821 5821 5821 5821 5821 5821 5821 5821 5820 5820 5820 5819 5818 5817 5816 5816 5816 5816
5831 5831 5831 5831 5830 5830 5829 5829 5828 5828 5827 5826 5826 5826 5825 5825 5824 5823 5822 5822 5821 5820 5820 5819 5818 5818 5817 5817 5817 5817 5817 5817 5817 5817 5817 5816 5816 5815 5815 5814 5813 5813 5813
5828 5828 5828 5828 5827 5826 5826 5825 5825 5825 5824 5824 5823 5823 5822 5821 5821 5820 5819 5819 5818 5818 5817 5816 5815 5814 5814 5814 5814 5814 5814 5814 5814 5814 5813 5813 5813 5812 5812 5811 5811 5810 5810
5825 5825 5825 5824 5824 5823 5823 5822 5822 5822 5821 5821 5820 5820 5819 5818 5818 5817 5816 5816 5815 5814 5814 5813 5812 5811 5810 5810 5810 5810 5810 5810 5810 5810 5809 5809 5809 5808 5808 5808 5807 5807 5806
5821 5821 5821 5821 5821 5820 5820 5819 5819 5818 5818 5817 5817 5817 5816 5815 5814 5814 5813 5812 5812 5811 5810 5809 5809 5808 5807 5806 5806 5806 5806 5805 5805 5805 5805 5805 5805 5804 5804 5803 5803 5802 5802
5818 5818 5818 5817 5817 5817 5816 5816 5815 5815 5814 5813 5813 5813 5812 5811 5811 5810 5809 5809 5808 5807 5807 5806 5805 5804 5803 5803 5802 5801 5801 5801 5801 5800 5800 5800 5800 5800 5800 5799 5799 5798 5798
5814 5814 5814 5813 5813 5812 5812 5811 5811 5810 5810 5809 5809 5808 5808 5807 5807 5806 5805 5804 5804 5803 5802 5801 5801 5800 5799 5798 5798 5797 5796 5796 5796 5795 5795 5795 5795 5795 5795 5794 5794 5794 5793
5810 5809 5809 5809 5808 5808 5807 5807 5806 5806 5805 5804 5804 5803 5803 5803 5802 5802 5801 5800 5799 5798 5798 5797 5796 5795 5794 5794 5793 5792 5791 5791 5791 5790 5790 5790 5790 5790 5790 5789 5789 5788 5788
5804 5804 5804 5804 5803 5803 5802 5802 5801 5800 5800 5799 5799 5798 5798 5798 5797 5797 5796 5795 5794 5794 5793 5792 5791 5790 5789 5788 5788 5787 5786 5786 5785 5785 5784 5784 5784 5784 5784 5784 5783 5783 5782
5799 5798 5798 5798 5798 5797 5797 5796 5795 5795 5794 5794 5793 5793 5793 5792 5792 5791 5790 5790 5789 5788 5787 5786 5785 5784 5784 5783 5782 5781 5781 5780 5779 5779 5779 5778 5778 5778 5777 5777 5777 5776 5776
5792 5792 5792 5792 5791 5791 5791 5790 5789 5788 5788 5788 5787 5787 5787 5786 5786 5785 5785 5784 5783 5782 5781 5781 5780 5779 5778 5777 5776 5775 5774 5774 5773 5773 5772 5772 5771 5771 5770 5770 5770 5769 5769
5785 5785 5785 5785 5784 5784 5784 5783 5783 5782 5781 5781 5781 5781 5780 5780 5779 5779 5778 5777 5777 5776 5775 5775 5774 5772 5771 5770 5769 5769 5767 5767 5766 5765 5765 5765 5764 5764 5763 5763 5762 5762 5762
5778 5777 5777 5777 5777 5776 5776 5776 5775 5775 5774 5774 5774 5773 5773 5773 5772 5772 5771 5771 5770 5769 5768 5767 5767 5765 5764 5763 5762 5762 5761 5760 5759 5758 5757 5757 5757 5757 5756 5755 5755 5755 5754
5770 5769 5769 5769 5768 5768 5768 5767 5767 5767 5767 5767 5766 5766 5766 5765 5765 5764 5764 5763 5763 5762 5760 5760 5759 5758 5757 5756 5755 5754 5753 5752 5752 5751 5750 5750 5749 5749 5749 5748 5747 5747 5746
5761 5760 5760 5760 5759 5759 5759 5759 5758 5759 5759 5759 5758 5758 5758 5757 5757 5756 5756 5755 5754 5754 5753 5752 5751 5750 5749 5748 5747 5746 5746 5745 5744 5743 5743 5742 5742 5741 5741 5741 5740 5739 5738